Home   Weather   Prešov   Past weeks

Flag for Slovakia Past Weather in Prešov, Slovakia — Yesterday and Last 2 Weeks

Now
64 °F

Sunny.


Feels Like: 64 °F
Forecast: 41 / 54 °F
Wind: 2 mph from North

Location: Kosice - Barca

Current Time: Apr 28, 2017 at 6:27:31 pm

Latest Report: Apr 28, 2017 at 6:00 pm


Visibility: 10 mi

Pressure: 29.68 "Hg

Humidity: 73%

Dew Point: 55 °F

Location of PrešovLocation

Past Weather in Prešov — Graph

°F

Prešov Temperature Yesterday

Maximum temperature yesterday: 64 °F (at 3:30 pm)
Minimum temperature yesterday: 48 °F (at 4:30 am)
Average temperature yesterday: 56 °F

High & Low Weather Summary for the Past Weeks

 TemperatureHumidityPressure
High70 °F (Apr 26, 2:18 pm)94% (Apr 27, 9:00 pm)30.27 "Hg (Apr 27, 9:00 pm)
Low32 °F (Apr 17, 6:00 am)32% (Apr 21, 4:30 pm)29.68 "Hg (Apr 28, 5:30 pm)
Average46 °F68%29.95 "Hg
* Reported Apr 13 5:00 pm — Apr 28 5:30 pm, Prešov, Weather by CustomWeather, © 2017

Note: Actual official high and low records may vary slightly from our data, if they occured in-between our weather recording intervals... More about our weather records

Advertising

Prešov Weather History for the Previous 24 Hours

Scroll right to see more
 ConditionsComfort  
Time TempWeatherWind HumidityBarometerVisibility
5:30 pm
Fri, Apr 28
64 °FSunny.2 mph73%29.68 "Hg10 mi
5:00 pm64 °FSunny.1 mph78%29.71 "Hg10 mi
4:30 pm64 °FSunny.2 mph78%29.71 "Hg10 mi
4:00 pm63 °FSunny.1 mph83%29.71 "Hg10 mi
3:30 pm63 °FSunny.2 mph83%29.71 "Hg10 mi
3:00 pm63 °FSunny.2 mph83%29.74 "Hg10 mi
2:30 pm63 °FPassing clouds.3 mph77%29.71 "HgN/A
2:00 pm61 °FSunny.5 mph83%29.74 "Hg10 mi
1:30 pm61 °FSunny.6 mph88%29.74 "Hg10 mi
1:00 pm59 °FSunny.5 mph88%29.74 "Hg10 mi
12:30 pm59 °FLight rain. Clear.3 mph88%29.74 "HgN/A
12:00 pm59 °FLight rain. Clear.2 mph82%29.74 "HgN/A
11:30 am59 °FLight rain. Partly sunny.2 mph82%29.74 "HgN/A
11:00 am59 °FSunny.1 mph77%29.74 "Hg10 mi
10:30 am59 °FSunny.1 mph77%29.74 "Hg10 mi
9:30 am57 °FLight rain. Clear.1 mph82%29.77 "HgN/A
9:00 am55 °FSunny.5 mph88%29.77 "Hg10 mi
8:30 am55 °FSunny.3 mph82%29.77 "Hg10 mi
8:00 am54 °FSunny.7 mph88%29.77 "Hg10 mi
7:30 am52 °FSunny.7 mph94%29.77 "Hg10 mi
7:00 am50 °FSunny.7 mph94%29.77 "Hg10 mi
6:30 am48 °FLight rain. Clear.6 mph94%29.77 "HgN/A
6:00 am46 °FLight rain. Clear.5 mph93%29.80 "HgN/A
5:30 am46 °FLight rain. Clear.6 mph93%29.80 "HgN/A
5:00 am46 °FClear.8 mph93%29.80 "Hg10 mi
4:30 am46 °FClear.8 mph93%29.80 "Hg10 mi
4:00 am46 °FClear.9 mph93%29.83 "Hg10 mi
3:30 am46 °FClear.9 mph93%29.83 "Hg10 mi
3:00 am46 °FClear.8 mph93%29.83 "Hg10 mi
2:30 am46 °FClear.9 mph93%29.86 "Hg10 mi
2:00 am46 °FLight rain. Clear.8 mph93%29.86 "HgN/A
1:30 am46 °FLight rain. Overcast.9 mph93%29.86 "HgN/A
1:00 am46 °FLight rain. Clear.8 mph93%29.89 "Hg4 mi
12:30 am46 °FLight rain. Overcast.9 mph93%29.89 "Hg4 mi
12:00 am46 °FLight rain. Overcast.9 mph93%29.89 "Hg4 mi
11:30 pm
Thu, Apr 27
48 °FLight rain. Clear.9 mph94%29.89 "Hg6 mi
11:00 pm48 °FLight rain. Overcast.7 mph94%29.89 "Hg5 mi
10:30 pm50 °FLight rain. Clear.7 mph94%29.89 "Hg5 mi
10:00 pm52 °FLight rain. Overcast.7 mph94%29.89 "Hg4 mi
9:30 pm54 °FLight rain. Low clouds.5 mph94%29.89 "Hg6 mi
9:00 pm54 °FLight rain. Mostly cloudy.3 mph94%29.89 "Hg4 mi
8:30 pm57 °FLight rain. Mostly cloudy.3 mph88%29.89 "HgN/A
8:00 pm57 °FClear.6 mph88%29.86 "Hg10 mi
7:30 pm59 °FMore clouds than sun.3 mph88%29.86 "HgN/A
7:00 pm59 °FLight rain. Partly sunny.3 mph88%29.86 "HgN/A
6:30 pm59 °FLight rain. Partly sunny.2 mph88%29.86 "HgN/A
6:00 pm59 °FPartly sunny.3 mph88%29.86 "HgN/A
Weather by CustomWeather, © 2017

See weather overviewHow to use our weather pages